Latest Weather Observations for Jandakot

IDW60901

Issued at 7:05 pm WST Wednesday 30 July 2014 (issued every 10 minutes, with the page automatically refreshed every 10 minutes)

About weather observations | Map of Perth area stations | Latest observations for Perth area | Other Formats
Station Details ID: 009172 Name: JANDAKOT AERO Lat: -32.10 Lon: 115.88 Height: 30.0 m
Data from the previous 72 hours. | See also: Recent months at Jandakot
Date/Time
WST
Tmp

°C
App
Tmp
°C
Dew
Point
°C
Rel
Hum
%
Delta-T

°C
Wind Press
QNH
hPa
Press
MSL
hPa
Rain
since
9 am
mm
Dir
 
Spd
km/h
Gust
km/h
Spd
kts
Gust
kts
30/07:00pm 15.9 12.7 11.8 76 2.2 WSW 20 30 11 16 1022.3 - 0.0
30/06:30pm 16.8 13.3 10.2 65 3.5 W 19 28 10 15 1021.9 - 0.0
30/06:00pm 16.7 13.1 9.8 63 3.6 WNW 19 24 10 13 1021.7 1021.7 0.0
30/05:30pm 16.7 14.3 10.0 64 3.5 WNW 13 17 7 9 1021.8 - 0.0
30/05:00pm 17.0 13.5 10.2 64 3.6 W 19 32 10 17 1021.8 - 0.0
30/04:30pm 17.4 13.2 9.8 61 4.0 W 22 30 12 16 1021.6 - 0.0
30/04:00pm 17.8 13.3 10.1 60 4.1 W 24 32 13 17 1021.5 - 0.0
30/03:30pm 17.5 14.3 11.2 66 3.4 WSW 19 28 10 15 1021.4 - 0.0
30/03:00pm 17.6 13.9 10.2 62 3.9 W 20 30 11 16 1021.4 1021.4 0.0
30/02:30pm 17.6 13.5 10.2 62 3.9 W 22 30 12 16 1021.3 - 0.0
30/02:00pm 17.8 13.0 8.9 56 4.6 W 24 32 13 17 1021.2 - 0.0
30/01:30pm 17.7 14.1 10.4 62 3.9 W 20 30 11 16 1021.4 - 0.0
30/01:00pm 17.1 13.2 10.7 66 3.4 WNW 22 28 12 15 1021.5 - 0.0
30/12:30pm 17.2 12.5 9.3 59 4.1 WNW 24 28 13 15 1021.6 - 0.0
30/12:00pm 17.6 13.0 9.6 59 4.2 WNW 24 30 13 16 1021.9 1021.9 0.0
30/11:30am 17.3 13.3 9.2 59 4.2 WNW 20 30 11 16 1022.0 - 0.0
30/11:00am 17.3 13.9 9.2 59 4.2 W 17 22 9 12 1022.4 - 0.0
30/10:30am 17.0 13.6 9.1 59 4.1 W 17 22 9 12 1022.7 - 0.0
30/10:00am 16.8 12.9 9.3 61 3.9 WSW 20 33 11 18 1022.8 - 0.0
30/09:30am 16.5 12.7 9.1 61 3.8 W 19 24 10 13 1022.6 - 0.0
30/09:00am 16.2 13.8 8.8 61 3.8 W 11 15 6 8 1022.5 1022.5 0.0
30/08:30am 16.1 12.6 8.9 62 3.7 W 17 26 9 14 1022.3 - 0.0
30/08:00am 15.9 13.3 9.5 66 3.3 W 13 17 7 9 1022.2 - 0.0
30/07:30am 15.8 13.2 9.4 65 3.3 W 13 17 7 9 1021.9 - 0.0
30/07:00am 15.7 12.8 9.7 67 3.1 W 15 22 8 12 1021.9 - 0.0
30/06:30am 15.7 13.4 10.6 71 2.7 W 13 19 7 10 1021.9 - 0.0
30/06:00am 16.0 13.3 9.0 63 3.6 W 13 19 7 10 1021.8 1021.8 0.0
30/05:30am 16.1 12.6 8.6 61 3.8 W 17 26 9 14 1021.9 - 0.0
30/05:00am 15.9 12.9 9.1 64 3.5 W 15 20 8 11 1021.8 - 0.0
30/04:30am 15.8 13.0 8.7 62 3.6 W 13 20 7 11 1021.6 - 0.0
30/04:00am 15.6 13.9 9.8 68 3.0 W 9 13 5 7 1021.8 - 0.0
30/03:30am 15.5 14.0 9.3 66 3.2 WSW 7 11 4 6 1021.9 - 0.0
30/03:00am 16.0 12.8 8.5 61 3.8 NW 15 20 8 11 1022.1 1022.1 0.0
30/02:30am 15.9 12.3 9.7 66 3.2 NW 19 28 10 15 1022.5 - 0.0
30/02:00am 15.9 13.3 9.5 66 3.3 WNW 13 19 7 10 1022.8 - 0.0
30/01:30am 15.8 13.5 9.0 64 3.5 WNW 11 13 6 7 1022.9 - 0.0
30/01:00am 16.2 12.2 8.1 58 4.1 NW 19 22 10 12 1022.9 - 0.0
30/12:30am 16.2 12.9 9.4 64 3.5 WNW 17 22 9 12 1023.2 - 0.0
30/12:00am 16.2 13.1 9.0 62 3.7 WNW 15 20 8 11 1023.2 1023.2 0.0
 
Date/Time
WST
Tmp

°C
App
Tmp
°C
Dew
Point
°C
Rel
Hum
%
Delta-T

°C
Wind Press
QNH
hPa
Press
MSL
hPa
Rain
since
9 am
mm
Dir
 
Spd
km/h
Gust
km/h
Spd
kts
Gust
kts
29/11:30pm 16.2 12.7 8.8 61 3.8 WNW 17 24 9 13 1023.3 - 0.0
29/11:00pm 16.0 13.3 9.0 63 3.6 WNW 13 19 7 10 1023.4 - 0.0
29/10:30pm 16.2 12.8 9.0 62 3.7 WNW 17 26 9 14 1023.5 - 0.0
29/10:00pm 16.0 13.4 9.4 65 3.4 WNW 13 17 7 9 1023.3 - 0.0
29/09:30pm 16.1 14.2 10.6 70 2.9 WNW 11 13 6 7 1023.4 - 0.0
29/09:00pm 16.2 13.8 10.1 67 3.2 WNW 13 17 7 9 1023.5 1023.5 0.0
29/08:30pm 16.4 13.3 9.0 61 3.8 NW 15 20 8 11 1023.6 - 0.0
29/08:00pm 16.3 14.3 10.0 66 3.3 WNW 11 17 6 9 1023.6 - 0.0
29/07:30pm 16.3 13.2 8.9 61 3.8 WNW 15 19 8 10 1023.6 - 0.0
29/07:00pm 16.4 13.1 9.7 64 3.5 WNW 17 20 9 11 1023.6 - 0.0
29/06:30pm 16.3 14.1 10.8 70 2.9 W 13 17 7 9 1023.5 - 0.0
29/06:00pm 15.8 14.8 11.1 73 2.5 WNW 7 9 4 5 1023.5 1023.5 0.0
29/05:30pm 16.1 13.3 10.0 67 3.2 NW 15 20 8 11 1023.3 - 0.0
29/05:00pm 16.8 14.0 9.9 64 3.6 WNW 15 20 8 11 1023.2 - 0.0
29/04:30pm 16.6 12.2 11.8 73 2.6 WNW 26 35 14 19 1023.3 - 0.0
29/04:00pm 17.7 14.2 10.1 61 4.0 WNW 19 26 10 14 1023.0 - 0.0
29/03:30pm 18.2 13.8 10.3 60 4.2 W 24 30 13 16 1023.1 - 0.0
29/03:00pm 18.0 14.5 10.9 63 3.8 W 20 28 11 15 1023.1 1023.1 0.0
29/02:30pm 17.7 13.9 11.2 65 3.5 WSW 22 32 12 17 1023.1 - 0.0
29/02:00pm 17.5 13.6 10.8 65 3.6 WNW 22 33 12 18 1023.0 - 0.0
29/01:30pm 18.5 14.4 10.0 57 4.5 W 22 28 12 15 1022.9 - 0.0
29/01:00pm 19.1 15.0 8.7 51 5.4 NW 20 28 11 15 1023.1 - 0.0
29/12:30pm 19.0 15.1 8.6 51 5.4 WNW 19 28 10 15 1023.2 - 0.0
29/12:00pm 18.0 14.4 10.5 61 4.0 WNW 20 28 11 15 1023.6 1023.6 0.0
29/11:30am 18.2 14.7 11.0 63 3.9 WNW 20 32 11 17 1023.9 - 0.0
29/11:00am 17.9 15.1 11.2 65 3.6 W 17 24 9 13 1024.3 - 0.0
29/10:30am 17.4 13.8 10.4 63 3.7 W 20 30 11 16 1024.6 - 0.0
29/10:00am 17.3 14.0 11.0 66 3.4 W 19 28 10 15 1024.9 - 0.0
29/09:30am 16.6 16.0 11.6 72 2.7 NNW 6 13 3 7 1024.8 - 0.0
29/09:00am 15.4 14.5 11.5 77 2.1 N 7 13 4 7 1024.5 1024.5 0.0
29/08:30am 15.2 13.8 10.8 75 2.3 WNW 9 11 5 6 1024.1 - 0.0
29/08:00am 12.7 11.4 11.4 92 0.7 N 9 13 5 7 1023.9 - 0.0
29/07:30am 11.6 10.5 10.8 95 0.4 NE 7 9 4 5 1023.6 - 0.0
29/07:00am 11.7 10.7 10.9 95 0.4 E 7 9 4 5 1023.1 - 0.0
29/06:30am 12.1 10.4 11.1 94 0.5 NE 11 11 6 6 1022.9 - 0.0
29/06:00am 12.3 11.4 11.3 94 0.5 NE 7 9 4 5 1022.7 1022.7 0.0
29/05:30am 12.1 11.1 11.1 94 0.5 NNE 7 9 4 5 1022.4 - 0.0
29/05:00am 11.8 11.0 11.2 96 0.3 NE 6 6 3 3 1022.3 - 0.0
29/04:30am 11.4 10.3 10.8 96 0.3 NE 7 9 4 5 1022.4 - 0.0
29/04:00am 11.2 10.0 10.2 94 0.5 NNE 7 9 4 5 1022.5 - 0.0
29/03:30am 11.4 9.7 10.0 91 0.7 NNE 9 11 5 6 1022.4 - 0.0
29/03:00am 14.0 11.8 9.5 74 2.3 WNW 11 13 6 7 1022.6 1022.6 0.0
29/02:30am 15.2 12.7 9.8 70 2.8 W 13 19 7 10 1022.5 - 0.0
29/02:00am 15.7 13.6 11.0 73 2.5 W 13 20 7 11 1022.6 - 0.0
29/01:30am 15.9 14.6 12.4 80 1.9 W 11 15 6 8 1022.8 - 0.0
29/01:00am 16.1 14.1 11.5 74 2.5 W 13 19 7 10 1023.0 - 0.0
29/12:30am 16.0 14.3 12.3 79 2.0 W 13 19 7 10 1023.0 - 0.0
29/12:00am 15.8 14.1 12.3 80 1.9 W 13 17 7 9 1023.0 1023.0 0.0
 
Date/Time
WST
Tmp

°C
App
Tmp
°C
Dew
Point
°C
Rel
Hum
%
Delta-T

°C
Wind Press
QNH
hPa
Press
MSL
hPa
Rain
since
9 am
mm
Dir
 
Spd
km/h
Gust
km/h
Spd
kts
Gust
kts
28/11:30pm 15.8 14.4 12.3 80 1.9 W 11 15 6 8 1023.0 - 0.0
28/11:00pm 15.7 13.9 12.0 78 2.0 W 13 17 7 9 1023.2 - 0.0
28/10:30pm 15.5 14.8 12.0 79 1.9 W 7 9 4 5 1023.4 - 0.0
28/10:00pm 15.7 13.5 12.0 78 2.0 W 15 20 8 11 1023.5 - 0.0
28/09:30pm 15.9 13.4 12.2 78 2.0 W 17 26 9 14 1023.7 - 0.0
28/09:00pm 15.5 14.1 12.2 81 1.8 W 11 15 6 8 1023.6 1023.6 0.0
28/08:30pm 15.5 13.4 12.4 82 1.7 W 15 20 8 11 1023.5 - 0.0
28/08:00pm 15.7 12.3 10.4 71 2.8 W 19 24 10 13 1023.4 - 0.0
28/07:30pm 16.3 13.2 10.4 68 3.1 W 17 24 9 13 1023.4 - 0.0
28/07:00pm 15.7 13.0 11.8 77 2.1 W 17 24 9 13 1023.4 - 0.0
28/06:30pm 16.3 13.1 11.3 72 2.7 W 19 26 10 14 1023.1 - 0.0
28/06:00pm 16.7 13.4 10.9 68 3.1 W 19 28 10 15 1022.8 1022.8 0.0
28/05:30pm 16.5 13.0 10.9 69 3.0 W 20 28 11 15 1022.6 - 0.0
28/05:00pm 17.4 13.4 9.1 58 4.3 W 20 30 11 16 1022.4 - 0.0
28/04:30pm 17.6 13.5 8.7 56 4.6 W 20 32 11 17 1022.3 - 0.0
28/04:00pm 17.8 12.6 8.9 56 4.6 W 26 37 14 20 1022.0 - 0.0
28/03:30pm 18.1 12.8 8.3 52 5.0 W 26 35 14 19 1021.7 - 0.0
28/03:00pm 18.5 13.6 9.8 57 4.6 W 26 32 14 17 1021.6 1021.6 0.0
28/02:30pm 18.6 13.3 9.9 57 4.6 WNW 28 35 15 19 1022.0 - 0.0
28/01:00pm 19.0 14.8 9.7 54 4.9 W 22 35 12 19 1022.6 - 0.0
28/12:30pm 18.0 14.1 8.7 54 4.8 W 19 30 10 16 1023.3 - 0.0
28/12:00pm 17.8 12.0 9.6 58 4.3 W 30 41 16 22 1023.5 1023.5 0.0
28/11:30am 18.3 13.3 9.5 56 4.6 WNW 26 37 14 20 1023.6 - 0.0
28/11:00am 18.1 13.3 10.4 60 4.1 WNW 26 33 14 18 1023.6 - 0.0
28/10:30am 17.9 13.0 9.9 59 4.2 W 26 37 14 20 1023.8 - 0.0
28/10:00am 16.9 12.2 9.2 60 4.0 W 24 33 13 18 1023.8 - 0.0
28/09:30am 16.8 14.2 10.8 67 3.2 WNW 15 20 8 11 1023.4 - 0.0
28/09:00am 15.7 13.4 11.8 77 2.1 W 15 20 8 11 1023.4 1023.4 5.8
28/08:30am 15.8 13.5 10.5 71 2.8 WNW 13 15 7 8 1023.1 - 5.8
28/08:00am 15.1 11.9 10.1 72 2.6 W 17 20 9 11 1022.8 - 5.8
28/07:30am 14.0 11.7 10.6 80 1.8 WNW 13 15 7 8 1022.6 - 5.8
28/07:00am 14.5 10.4 10.1 75 2.3 WNW 22 28 12 15 1022.2 - 5.8
28/06:41am 14.4 9.5 11.2 81 1.7 W 28 46 15 25 1022.2 - 5.6
28/06:30am 14.9 11.7 10.1 73 2.5 WNW 17 22 9 12 1021.9 - 5.6
28/06:00am 15.0 11.8 9.8 71 2.7 WNW 17 24 9 13 1021.8 1021.8 5.6
28/05:30am 15.0 11.4 8.4 64 3.3 WNW 17 24 9 13 1021.7 - 5.6
28/05:00am 14.1 10.9 10.0 76 2.1 WNW 17 26 9 14 1021.7 - 5.6
28/04:30am 13.8 11.1 10.3 79 1.8 WNW 15 17 8 9 1021.7 - 5.6
28/04:00am 14.5 11.0 10.9 79 1.9 W 20 30 11 16 1021.9 - 5.6
28/03:30am 14.6 12.4 9.3 70 2.7 WNW 11 17 6 9 1021.9 - 5.6
28/03:00am 14.6 11.8 8.6 67 3.0 WNW 13 19 7 10 1022.0 1022.0 5.6
28/02:30am 13.9 11.1 8.5 70 2.7 WNW 13 17 7 9 1022.2 - 5.6
28/02:00am 14.5 11.1 7.8 64 3.3 WNW 15 19 8 10 1022.2 - 5.6
28/01:30am 14.8 10.8 8.4 65 3.2 W 19 26 10 14 1022.2 - 5.6
28/01:00am 15.2 11.5 9.6 69 2.9 W 19 22 10 12 1022.2 - 5.6
28/12:30am 15.0 11.8 9.8 71 2.7 W 17 20 9 11 1022.2 - 5.6
28/12:00am 15.3 12.2 10.3 72 2.6 WNW 17 24 9 13 1022.3 1022.3 5.6
 
Date/Time
WST
Tmp

°C
App
Tmp
°C
Dew
Point
°C
Rel
Hum
%
Delta-T

°C
Wind Press
QNH
hPa
Press
MSL
hPa
Rain
since
9 am
mm
Dir
 
Spd
km/h
Gust
km/h
Spd
kts
Gust
kts
27/11:30pm 15.4 11.8 10.0 70 2.8 W 19 26 10 14 1022.5 - 5.6
27/11:00pm 14.9 11.5 9.0 68 3.0 WNW 17 20 9 11 1022.7 - 5.6
27/10:30pm 13.8 11.8 10.3 79 1.8 NW 11 15 6 8 1022.8 - 5.6
27/10:00pm 14.7 11.5 10.1 74 2.4 WNW 17 20 9 11 1022.9 - 5.6
27/09:30pm 14.2 11.5 9.1 71 2.6 WNW 13 15 7 8 1022.9 - 5.6
27/09:00pm 14.8 12.4 10.2 74 2.4 WNW 13 17 7 9 1022.8 1022.8 5.6
27/08:30pm 14.9 13.5 10.9 77 2.1 WSW 9 13 5 7 1023.1 - 5.6
27/08:00pm 14.5 12.2 10.3 76 2.2 WNW 13 15 7 8 1022.7 - 5.6
27/07:30pm 14.7 12.4 10.5 76 2.2 W 13 24 7 13 1022.6 - 5.6

Latest Capital City Observations: Canberra | Sydney | Melbourne | Brisbane | Adelaide | Perth | Hobart | Darwin

Other Formats:

Comma delimited format used in spreadsheet applications
http://www.bom.gov.au/fwo/IDW60901/IDW60901.94609.axf

JavaScript Object Notation format (JSON) in row-major order
http://www.bom.gov.au/fwo/IDW60901/IDW60901.94609.json